Milwaukee General Mitchell International Airport (MKE)


Airport Diagram
Current Weather/Forecast (MVFR Conditions)
METAR KMKE 162352Z 30008KT 10SM BKN029 OVC050 02/M02 A2967 RMK AO2 SLP053 T00221022 10028 20022 51017
TAF KMKE 162338Z 1700/1806 30009KT P6SM SCT017 OVC023 TEMPO 1700/1701 BKN017 FM171500 33007KT P6SM OVC025

All Charts
General
Chart Name Download
AIRPORT DIAGRAM
TAKEOFF MINIMUMS
HOT SPOT

Departures
Chart Name Download
ACCRA FIVE (RNAV)
MITCHELL SIX
UECKR SIX (RNAV)

Arrivals
Chart Name Download
GOPAC TWO (RNAV)

Approaches
Chart Name Download
ILS OR LOC RWY 01L
ILS OR LOC RWY 07R
ILS OR LOC RWY 19R
ILS RWY 01L (CAT II - III)
RNAV (RNP) Y RWY 07R
RNAV (RNP) Y RWY 25L
RNAV (GPS) RWY 01L
RNAV (GPS) RWY 01R
RNAV (GPS) RWY 07L
RNAV (GPS) RWY 13
RNAV (GPS) RWY 19L
RNAV (GPS) RWY 19R
RNAV (GPS) RWY 25R
RNAV (GPS) RWY 31
RNAV (GPS) Z RWY 07R
RNAV (GPS) Z RWY 25L
LOC RWY 25L